Starlink 11198

operational
NORAD ID: 60114 Int'l Des: 2024-118 Owner: SPXS Country: US Constellation: starlink
LEOCIRCULAR

About Starlink 11198

Description loading...

Live Position

Loading 3D Globe...

Upcoming Passes

Altitude History

Altitude vs Time

uPlot chart will show altitude changes over time

Two-Line Element Set

1 60114U 24118B 26095.39161534 .00017722 00000-0 15067-3 0 9993
2 60114 53.1567 89.8885 0001038 63.1390 296.9734 15.69733592102183
Epoch: Apr 5, 2026 • Age: 10 hours

Current Status

Altitude 360.5 km
Velocity 7.69 km/s
Sub-Earth Point 2.71°N, 141.99°E
Launch Date Jun 24, 2024
Age 1.7 years
Type internet

Technical Details

Classification Payload
Mass 960.00 kg
Dry Mass 910.00 kg
Total Mass 960.00 kg
Length 0.30 m
Diameter 4.10 m
Span 29.00 m
Shape Box + pan
Manufacturer SPXS
Bus Type Starlink V2MD
Phase Status In Orbit
Owner/State SPXS/US

Large Constellations

Loading constellations...